Weather History for Molokai, HI

Change the Weather History Date:

Saturday, January 19, 2013

  Actual Average Record
Temperature  
Mean Temperature 70 °F -  
Max Temperature 75 °F 77 °F 84 °F (1977)
Min Temperature 66 °F 63 °F 55 °F (1981)
Cooling Degree Days 6    
Growing Degree Days 20 (Base 50)    
Moisture  
Dew Point 53 °F    
Average Humidity 55    
Maximum Humidity 61    
Minimum Humidity 45    
Precipitation  
Precipitation 0.00 in - - ()
Sea Level Pressure  
Sea Level Pressure 30.00 in    
Wind  
Wind Speed 13 mph (NNW)    
Max Wind Speed 20 mph    
Max Gust Speed 25 mph    
Visibility 10 miles    
Events      
Averages and records for this station are not official NWS values.
T = Trace of Precipitation, MM = Missing Value Source: NWS Daily Summary

Daily Weather History Graph

Daily Weather History Graph

Search for Another Location

Airport:

Trip Planner

Search our weather history database for the weather conditions in past years. The results will help you decide how hot, cold, wet, or windy it might be!

Date:

Astronomy

Jan. 19, 2013 Rise Set
Actual Time 7:08 AM HST 6:10 PM HST
Civil Twilight 6:44 AM HST 6:34 PM HST
Nautical Twilight 6:17 AM HST 7:01 PM HST
Astronomical Twilight 5:50 AM HST 7:28 PM HST
Moon 12:36 PM HST (1/19) 1:02 AM HST (1/19)
Length of Visible Light 11h 49m
Length of Day
11h 02m
First Quarter, 59% of the Moon is Illuminated
Jan 19
First Quarter
Jan 26
Full
Feb 3
Last Quarter
Feb 9
New
Feb 17
First Quarter

Hourly Weather History & Observations

Time (HST) Temp. Dew Point Humidity Pressure Visibility Wind Dir Wind Speed Gust Speed Precip Events Conditions
12:54 AM 68.0 °F 52.0 °F 56% 29.96 in 10.0 mi NNW 11.5 mph - N/A   Partly Cloudy
1:54 AM 68.0 °F 52.0 °F 56% 29.96 in 10.0 mi North 11.5 mph - N/A   Clear
2:54 AM 66.0 °F 52.0 °F 60% 29.95 in 10.0 mi NNW 10.4 mph - N/A   Clear
3:54 AM 66.9 °F 52.0 °F 59% 29.96 in 10.0 mi North 12.7 mph - N/A   Partly Cloudy
4:54 AM 66.0 °F 50.0 °F 56% 29.96 in 10.0 mi North 13.8 mph - N/A   Partly Cloudy
5:54 AM 66.9 °F 52.0 °F 59% 29.98 in 10.0 mi North 13.8 mph - N/A   Scattered Clouds
6:54 AM 66.0 °F 51.1 °F 59% 29.99 in 10.0 mi North 13.8 mph 20.7 mph N/A   Partly Cloudy
7:54 AM 68.0 °F 52.0 °F 56% 30.01 in 10.0 mi NNW 15.0 mph 21.9 mph N/A   Mostly Cloudy
8:28 AM 69.8 °F 51.8 °F 53% 30.00 in 10.0 mi NNW 10.4 mph 20.7 mph N/A   Scattered Clouds
8:54 AM 71.1 °F 53.1 °F 53% 30.02 in 10.0 mi NNW 16.1 mph 20.7 mph N/A   Clear
9:54 AM 73.0 °F 52.0 °F 48% 30.03 in 10.0 mi NNW 12.7 mph 20.7 mph N/A   Clear
10:54 AM 73.9 °F 52.0 °F 46% 30.03 in 10.0 mi NNW 13.8 mph 23.0 mph N/A   Clear
11:54 AM 75.0 °F 54.0 °F 48% 30.00 in 10.0 mi NNW 16.1 mph 24.2 mph N/A   Clear
12:54 PM 75.9 °F 53.1 °F 45% 29.97 in 10.0 mi NNW 15.0 mph 23.0 mph N/A   Clear
1:54 PM 75.0 °F 54.0 °F 48% 29.95 in 10.0 mi NNW 19.6 mph 25.3 mph N/A   Partly Cloudy
2:54 PM 73.0 °F 57.0 °F 57% 29.95 in 10.0 mi NNW 16.1 mph 23.0 mph N/A   Scattered Clouds
3:54 PM 73.0 °F 55.9 °F 55% 29.96 in 10.0 mi NNW 16.1 mph 24.2 mph N/A   Partly Cloudy
4:54 PM 72.0 °F 55.0 °F 55% 29.98 in 10.0 mi NNW 17.3 mph 25.3 mph N/A   Scattered Clouds
5:54 PM 70.0 °F 53.1 °F 55% 30.01 in 10.0 mi NNW 12.7 mph 20.7 mph N/A   Partly Cloudy
6:54 PM 70.0 °F 55.0 °F 59% 30.03 in 10.0 mi NNW 13.8 mph 20.7 mph N/A   Mostly Cloudy
7:54 PM 69.1 °F 54.0 °F 58% 30.04 in 10.0 mi North 12.7 mph 19.6 mph N/A   Scattered Clouds
8:54 PM 69.1 °F 53.1 °F 57% 30.06 in 10.0 mi NNW 13.8 mph - N/A   Scattered Clouds
9:54 PM 69.1 °F 55.0 °F 61% 30.06 in 10.0 mi North 11.5 mph - N/A   Scattered Clouds
10:54 PM 69.1 °F 53.1 °F 57% 30.06 in 10.0 mi North 15.0 mph 23.0 mph N/A   Clear
11:54 PM 69.1 °F 55.0 °F 61% 30.06 in 10.0 mi North 13.8 mph 20.7 mph N/A   Scattered Clouds